{"data":{"norad_id":48050,"epoch":"2026-09-20T01:18:52.737120Z","epoch_age_seconds":60361,"freshness":"FRESH","line1":"1 48050U 21025J   26263.05477705 -.00000247  00000+0 -70767-3 0  9995","line2":"2 48050  87.8909 301.2467 0001973  99.3475 260.7877 13.13891852266068","mean_motion":13.13891852,"eccentricity":0.0001973,"inclination_deg":87.8909,"raan_deg":301.2467,"arg_perigee_deg":99.3475,"mean_anomaly_deg":260.7877,"bstar":-0.00070767,"rev_number":26606,"period_min":109.59806150012,"perigee_km":1206.6443722212,"apogee_km":1209.6379175771,"semimajor_km":7586.2781448992,"source":"CELESTRAK","updated_at":"2026-09-20T09:00:44.585242Z"}}